DW5499 Weather Reports


Display with metric or nautical units.
time (UTC)temp
F
wind
direction
speed
MPH
gust
MPH
rain 1hr
in
rain 24hr
in
rain mn
in
humidity
%
barometer
mb
20260502163011 57 1 8.0 17.0 0.00 0.00 0.00 35 1022.9
20260502161505 56 74 3.0 11.0 0.00 0.00 0.00 34 1023.0
20260502151612 54 7 7.0 10.0 0.00 0.00 0.00 42 1023.0
20260502140111 49 30 3.0 6.0 0.00 0.00 0.00 57 1023.1
20260502123040 42 288 1.0 3.0 0.00 0.00 0.00 68 1022.6
20260502121539 40 266 0.0 1.0 0.00 0.00 0.00 71 1022.5
20260502114533 39 266 1.0 2.0 0.00 0.00 0.00 70 1022.1
20260502113045 39 265 0.0 3.0 0.00 0.00 0.00 70 1022.0
20260502111531 40 265 0.0 2.0 0.00 0.00 0.00 69 1021.8
20260502110034 40 266 0.0 1.0 0.00 0.00 0.00 68 1021.8
20260502104523 41 266 0.0 2.0 0.00 0.00 0.00 66 1021.7
20260502103022 41 290 0.0 3.0 0.00 0.00 0.00 65 1021.5
20260502101524 41 266 1.0 3.0 0.00 0.00 0.00 65 1021.4
20260502091510 43 278 0.0 3.0 0.00 0.00 0.00 62 1021.1
20260502070105 47 357 0.0 4.0 0.00 0.00 0.00 52 1020.9
20260502064559 47 327 1.0 5.0 0.00 0.00 0.00 51 1020.9
20260502063052 47 325 1.0 4.0 0.00 0.00 0.00 51 1021.0
20260502061545 47 314 1.0 5.0 0.00 0.00 0.00 51 1021.0
20260502060042 48 309 0.0 4.0 0.00 0.00 0.00 50 1021.1
20260502054539 48 319 0.0 5.0 0.00 0.00 0.00 49 1020.9
20260502053038 49 335 1.0 5.0 0.00 0.00 0.00 48 1020.9
20260502051536 49 291 1.0 6.0 0.00 0.00 0.00 48 1020.9
20260502050039 50 320 1.0 6.0 0.00 0.00 0.00 47 1020.8
20260502044531 50 311 1.0 6.0 0.00 0.00 0.00 46 1020.8
20260502043027 51 316 2.0 6.0 0.00 0.00 0.00 46 1020.7
20260502041527 51 294 2.0 6.0 0.00 0.00 0.00 46 1020.6
20260502040023 52 301 1.0 6.0 0.00 0.00 0.00 45 1020.6
20260502034523 52 335 2.0 6.0 0.00 0.00 0.00 45 1020.5
20260502033017 53 310 3.0 7.0 0.00 0.00 0.00 43 1020.3
20260502031515 54 267 1.0 4.0 0.00 0.00 0.00 43 1020.2
20260502030013 54 297 3.0 7.0 0.00 0.00 0.00 42 1019.9
20260502024512 55 340 2.0 7.0 0.00 0.00 0.00 42 1019.7
20260502023008 55 331 1.0 4.0 0.00 0.00 0.00 42 1019.3
20260502021506 56 356 5.0 10.0 0.00 0.00 0.00 41 1019.1
20260502020007 57 340 4.0 8.0 0.00 0.00 0.00 41 1018.9
20260502014512 57 335 2.0 7.0 0.00 0.00 0.00 42 1018.6
20260502013006 58 292 2.0 8.0 0.00 0.00 0.00 42 1018.3
20260502011505 58 345 5.0 11.0 0.00 0.00 0.00 41 1018.1
20260502010008 59 345 5.0 13.0 0.00 0.00 0.00 39 1017.9
20260502004504 60 303 4.0 14.0 0.00 0.00 0.00 38 1017.8
20260502003003 61 331 6.0 12.0 0.00 0.00 0.00 38 1017.6
20260502001503 61 345 7.0 15.0 0.00 0.00 0.00 37 1017.4
20260502000003 62 4 6.0 14.0 0.00 0.00 0.00 37 1017.3
20260501234505 62 11 4.0 15.0 0.00 0.00 0.00 36 1017.3
20260501233002 63 321 7.0 18.0 0.00 0.00 0.00 35 1017.3
20260501231501 64 345 4.0 9.0 0.00 0.00 0.00 35 1017.1
20260501230001 63 328 5.0 12.0 0.00 0.00 0.00 34 1017.0
20260501224614 63 303 9.0 19.0 0.00 0.00 0.00 34 1017.2
20260501223100 64 340 7.0 13.0 0.00 0.00 0.00 33 1017.1
20260501221600 65 351 5.0 13.0 0.00 0.00 0.00 33 1017.1
20260501220059 64 286 7.0 15.0 0.00 0.00 0.00 32 1017.1
20260501214559 65 320 8.0 14.0 0.00 0.00 0.00 33 1017.2
20260501213056 64 355 4.0 13.0 0.00 0.00 0.00 33 1017.4
20260501211554 64 335 6.0 17.0 0.00 0.00 0.00 32 1017.7
20260501210052 64 294 6.0 15.0 0.00 0.00 0.00 32 1017.7
20260501204550 64 278 8.0 18.0 0.00 0.00 0.00 31 1017.9
20260501203049 64 272 9.0 15.0 0.00 0.00 0.00 32 1018.2
20260501201547 62 303 4.0 13.0 0.00 0.00 0.00 37 1018.3
20260501200048 62 335 5.0 15.0 0.00 0.00 0.00 41 1018.6
20260501194554 63 354 9.0 21.0 0.00 0.00 0.00 40 1018.6
20260501193044 63 278 7.0 18.0 0.00 0.00 0.00 36 1018.6
20260501191548 63 350 8.0 16.0 0.00 0.00 0.00 35 1018.6
20260501190042 63 340 8.0 16.0 0.00 0.00 0.00 34 1018.5
20260501184540 63 234 11.0 22.0 0.00 0.00 0.00 32 1018.6
20260501183039 63 327 7.0 16.0 0.00 0.00 0.00 35 1018.8
20260501181537 62 296 5.0 14.0 0.00 0.00 0.00 36 1019.0
20260501180035 62 229 7.0 16.0 0.00 0.00 0.00 35 1019.1
20260501174533 61 255 7.0 16.0 0.00 0.00 0.00 37 1019.3
20260501173044 61 303 2.0 11.0 0.00 0.00 0.00 38 1019.5
20260501171530 60 231 6.0 16.0 0.00 0.00 0.00 37 1019.6